Regional Weather Roundup
Issued by NWS

Home | Current Version | Previous Version | Graphics & Text | Print | Product List | Glossary Off
Versions: 1 2 3 4 5 6 7 8 9 10 11 12 13 14 15 16 17 18 19 20 21 22 23 24 25 26 27 28 29 30 31 32 33 34 35 36 37 38 39 40 41 42 43 44 45 46 47 48 49 50

000
ASUS43 KDMX 012207
RWRIA

WEATHER ROUNDUP FOR IOWA
NATIONAL WEATHER SERVICE DES MOINES IA
500 PM CDT FRI AUG 01 2014

NOTE: "FAIR" INDICATES FEW OR NO CLOUDS BELOW 12,000 FEET WITH NO
SIGNIFICANT WEATHER AND/OR OBSTRUCTIONS TO VISIBILITY.

* - THESE STATIONS ARE NOT NWS STATIONS...THUS NOT UNDER NWS
QUALITY CONTROL.  THEY ALSO DO NOT REPORT WEATHER SUCH
AS PRECIPITATION OR FOG.

IAZ001>003-012>014-020>022-031>034-043>046-012300-
   NORTHWEST IOWA

CITY           SKY/WX    TMP DP  RH WIND       PRES   REMARKS
CARROLL *      PTSUNNY   81  59  47 NE3       30.09S HX  81
CHEROKEE *     SUNNY     81  59  47 NE5       30.09F HX  81
DENISON *      SUNNY     79  63  57 CALM      30.08S HX  80
LE MARS *      MOSUNNY   81  59  47 CALM      30.09F HX  81
ORANGE CITY *  SUNNY     82  52  34 CALM      30.10S HX  81
SHELDON *      SUNNY     81  59  47 CALM      30.09S HX  81
SIOUX CITY     MOSUNNY   84  60  44 VRB3      30.08F HX  84
SPENCER        SUNNY     83  57  41 NW6       30.09F HX  82
STORM LAKE *   MOSUNNY   79  61  53 CALM      30.10F HX  80
$$

IAZ055>058-069>071-079>083-090>094-012300-
   SOUTHWEST IOWA

CITY           SKY/WX    TMP DP  RH WIND       PRES   REMARKS
ATLANTIC *     SUNNY     81  63  54 N8        30.07S HX  82
AUDUBON *      SUNNY     84  64  51 CALM      30.10S HX  86
CLARINDA *     SUNNY     79  63  57 S5        30.09S HX  80
COUNCIL BLFS * MOSUNNY   79  64  61 NE8       30.08S HX  81
CRESTON *      SUNNY     81  61  50 CALM      30.08S HX  81
HARLAN  *      SUNNY     79  63  57 CALM      30.12S HX  80
LAMONI         MOSUNNY   81  61  50 VRB5      30.07F HX  82
RED OAK *      MOSUNNY   82  63  51 CALM      30.07F HX  83
SHENANDOAH *   MOSUNNY   82  64  54 E5        30.08S HX  84
$$

IAZ047>049-059>061-072>074-084-012300-
   CENTRAL IOWA

CITY           SKY/WX    TMP DP  RH WIND       PRES   REMARKS
AMES           MOSUNNY   82  58  43 VRB3      30.07F HX  82
ANKENY *       MOSUNNY   82  57  42 CALM      30.07S HX  82
CHARITON *     SUNNY     81  61  50 NW5       30.07S HX  81
DES MOINES     PTSUNNY   82  58  43 E3        30.06F HX  82
GRINNELL*      MOSUNNY   79  59  50 CALM      30.07F HX  80
KNOXVILLE *    SUNNY     81  59  47 VRB3      30.05F HX  81
MARSHALLTOWN   MOSUNNY   82  60  47 CALM      30.07F HX  82
PELLA *        SUNNY     84  59  42 N3        30.07F HX  84
PERRY *          N/A     82  63  51 CALM      30.08S HX  83
$$

IAZ004>006-015-016-023>025-035-036-012300-
   NORTH CENTRAL IOWA

CITY           SKY/WX    TMP DP  RH WIND       PRES   REMARKS
ALGONA *       MOSUNNY   81  61  50 NW5       30.09S HX  81
CLARION *      SUNNY     81  57  44 CALM      30.08F HX  81
ESTHERVILLE    SUNNY     80  56  43 NE6       30.09F HX  80
FORT DODGE *   SUNNY     81  59  47 CALM      30.09F HX  81
MASON CITY     PTSUNNY   82  63  52 N6        30.09F HX  83
FOREST CITY *  MOSUNNY   81  59  47 NW3       30.08F HX  81
IOWA FALLS *     N/A     81  57  44 W3        30.09S HX  81
$$

IAZ007>011-017>019-026>030-037>042-050>054-066-012300-
   NORTHEAST IOWA

CITY           SKY/WX    TMP DP  RH WIND       PRES   REMARKS
CEDAR RAPIDS   MOSUNNY   80  61  52 CALM      30.05F HX  81
CHARLES CITY * SUNNY     79  59  50 NW3       30.08S HX  80
CLINTON *      MOSUNNY   81  61  50 NW5       30.08S HX  81
DECORAH *      SUNNY     81  57  44 NW3       30.06S HX  81
DUBUQUE        SUNNY     81  59  47 NW7       30.07S HX  81
MONTICELLO *   PTSUNNY   81  63  54 N6        30.05S HX  82
OELWEIN *      SUNNY     81  61  50 NW5       30.08S HX  81
WATERLOO       MOSUNNY   82  57  42 VRB7      30.05F HX  82
$$

IAZ064-065-067-068-078-012300-
   EAST CENTRAL IOWA

CITY           SKY/WX    TMP DP  RH WIND       PRES   REMARKS
DAVENPORT      MOSUNNY   82  61  48 W5        30.06F HX  83
IOWA CITY      MOSUNNY   80  60  50 SW7       30.06F HX  81
MT. PLEASANT * PTSUNNY   81  61  50 CALM      30.05F HX  81
MUSCATINE *    MOSUNNY   82  61  47 NE8       30.04F HX  83
QUAD CITIES    MOSUNNY   83  59  44 CALM      30.04F HX  83
$$

IAZ062-063-075>077-085>089-095>099-012300-
   SOUTHEAST IOWA

CITY           SKY/WX    TMP DP  RH WIND       PRES   REMARKS
BURLINGTON     SUNNY     80  62  54 CALM      30.04F HX  81
FAIRFIELD *    SUNNY     81  61  50 CALM      30.06S HX  81
FORT MADISON * SUNNY     82  61  47 CALM      30.06S HX  83
KEOKUK *       SUNNY     81  63  54 CALM      30.04F HX  82
OSKALOOSA *      N/A     81  63  54 N7        30.06F HX  82
CENTERVILLE *  SUNNY     81  64  57 S5        30.09S HX  82
OTTUMWA        SUNNY     82  61  48 N6        30.04F HX  83
WASHINGTON *   PTSUNNY   81  64  57 N7        30.05F HX  82
$$

ABBREVIATIONS USED IN REMARKS
   TC - TEMPERATURES IN CELSIUS
  WCI - WIND CHILL INDEX
   HX - HEAT INDEX
  VSB - VISIBILITY
$$



USA.gov is the U.S. government's official web portal to all federal, state and local government web resources and services.